#timestamp,LO_Frequency,Hit 
1503705615.6,286047005.6,N
1503705635.5,286047006.0,N
1503705655.3,286047004.1,N
1503705675.1,286047005.8,N
1503705695.9,286047005.4,N
1503705715.7,286047004.1,N
1503705735.5,286047003.2,N
1503705755.3,286047005.8,N
1503705775.2,286047003.3,N
1503705795.0,286046999.7,N
1503705795.9,286046999.7,N
1503705815.7,286046999.9,N
1503705835.6,286047003.0,N
1503705855.4,286047005.5,N
1503705875.2,286047004.8,N
1503705895.1,286047004.8,N
1503705896.0,286047004.8,N
1503705915.8,286047005.4,N
1503705935.6,286047004.5,N
1503705955.5,286047002.9,N
1503705975.3,286047004.7,N
1503705995.1,286047007.5,N
1503706015.9,286047007.3,N
1503706035.7,286047004.6,N
1503706055.5,286047004.2,N
1503706075.4,286047000.0,N
1503706095.2,286047010.4,P
1503706115.0,286047006.6,N
1503706115.9,286047006.6,N
1503706135.8,286047008.6,P
1503706155.6,286047004.0,P
1503706175.4,286047002.3,N
1503706195.3,286047001.6,N
1503706215.1,286047006.3,N
1503706235.9,286047010.0,P
1503706255.7,286047004.1,N
1503706275.5,286047004.4,N
1503706295.3,286047003.3,N
1503706315.2,286047003.3,N
1503706335.0,286047008.6,P
1503706335.9,286047008.6,P
1503706355.8,286047003.7,N
1503706375.6,286047000.6,N
1503706395.4,286046998.2,N
1503706415.2,286047000.8,N
1503706435.1,286047002.3,N
1503706436.0,286047002.3,N
1503706455.8,286046998.3,N
1503706475.6,286046998.9,N
1503706495.5,286047000.5,N
1503706515.3,286047004.1,N
1503706535.1,286047003.2,N
1503706555.9,286047002.4,N
1503706575.7,286047002.3,N
1503706595.5,286046999.7,N
1503706615.4,286047002.5,N
1503706635.2,286047003.7,N
1503706655.0,286047000.8,N
1503706655.9,286047000.8,N
1503706675.8,286047000.0,N
1503706695.6,286046999.6,N
1503706715.4,286046999.1,N
1503706735.2,286046994.9,N
1503706755.1,286046997.5,N
1503706756.0,286046997.5,N
1503706775.8,286046997.4,N
1503706795.6,286046999.4,N
1503706815.5,286046999.0,N
1503706835.3,286046997.7,N
1503706855.1,286046995.3,N
1503706875.9,286046995.9,N
1503706895.7,286046999.3,N
1503706915.5,286047002.5,N
1503706935.4,286047001.6,N
1503706955.2,286047000.1,N
1503706975.0,286047000.6,N
1503706975.9,286047000.6,N
1503706995.8,286046998.9,N
1503707015.6,286046995.0,N
1503707035.4,286046996.0,N
1503707055.3,286046992.0,P
1503707075.1,286046994.5,N
1503707076.0,286046994.5,N
1503707095.8,286046992.0,N
1503707115.7,286046990.8,P
1503707135.5,286046995.2,N
1503707155.3,286046996.3,N
1503707175.2,286046992.1,P
1503707195.0,286047000.8,N
1503707195.9,286047000.8,N
1503707215.7,286047000.9,N
1503707235.6,286047000.4,N
1503707255.4,286046998.6,N
1503707275.2,286046999.1,N
1503707295.1,286046994.9,N
1503707296.0,286046994.9,N
1503707315.8,286046995.3,N
1503707335.6,286046998.8,N
1503707355.5,286046995.3,N
1503707375.3,286046994.9,N
1503707395.1,286046995.7,N
1503707415.9,286046997.9,N
1503707435.7,286046995.9,N
1503707455.5,286046994.3,N
1503707475.4,286046995.9,N
1503707495.2,286046994.1,N
1503707515.0,286046993.6,N
1503707515.9,286046993.6,N
1503707535.7,286046993.0,N
1503707555.6,286046991.1,P
1503707575.4,286046996.0,N
1503707595.3,286046997.5,N
1503707615.1,286046995.9,N
1503707616.0,286046995.9,N
1503707635.8,286046997.9,N
1503707655.7,286046997.1,N
1503707675.5,286046997.1,N
1503707695.3,286046997.0,N
1503707715.1,286047000.5,N
1503707735.9,286046998.2,N
1503707755.7,286046998.1,N
1503707775.5,286047002.8,N
1503707795.4,286047003.1,N
1503707815.2,286047005.9,N
1503707835.0,286047004.9,N
1503707835.9,286047004.9,N
1503707855.8,286047009.2,N
1503707875.6,286047006.6,N
1503707895.4,286047009.0,N
1503707915.3,286047010.8,N
1503707935.1,286047006.1,N
1503707936.0,286047006.1,N
1503707955.8,286047010.3,N
1503707975.7,286047010.3,N
1503707995.5,286047010.8,N
1503708015.3,286047009.1,N
1503708035.1,286047006.6,N
1503708055.9,286047005.2,N
1503708075.7,286047007.3,N
1503708095.5,286047008.7,N
1503708115.4,286047008.9,N
1503708135.2,286047007.0,N
1503708155.0,286047006.5,N
1503708155.9,286047006.5,N
1503708175.8,286047008.0,N
1503708195.6,286047008.6,N
1503708215.4,286047010.7,N
1503708235.3,286047009.6,N
1503708255.1,286047009.4,N
1503708256.0,286047009.4,N
1503708275.8,286047011.9,P
1503708295.7,286047002.8,N
1503708315.5,286046998.8,N
1503708335.3,286046997.5,N
1503708355.2,286046998.8,N
1503708375.9,286046999.1,N
1503708395.7,286046999.1,N
1503708415.6,286046999.3,N
1503708435.4,286046998.2,N
1503708455.2,286047004.4,N
1503708475.0,286047002.6,N
1503708476.0,286047002.6,N
1503708495.8,286047004.9,N
1503708515.6,286047005.1,N
1503708535.4,286047003.4,N
1503708555.3,286047003.0,N
1503708575.1,286047001.8,N
1503708595.8,286047000.5,N
1503708615.7,286047000.7,N
1503708635.5,286047000.6,N
1503708655.3,286046999.5,N
1503708675.2,286046996.7,N
1503708695.9,286046999.6,N
1503708715.7,286046999.5,N
1503708735.6,286046999.5,N
1503708755.4,286046996.5,N
1503708775.2,286046997.2,N
1503708795.0,286046997.8,N
1503708796.0,286046997.8,N
1503708815.8,286046996.5,N
1503708835.6,286047000.7,N
1503708855.4,286047004.0,N
1503708875.3,286047003.1,N
1503708895.1,286047004.4,N
1503708915.8,286047001.6,N
1503708935.7,286047001.8,N
1503708955.5,286047003.0,N
1503708975.3,286047003.3,N
1503708995.2,286047002.8,N
1503709015.9,286047002.4,N
1503709035.7,286047001.0,N
1503709055.6,286047000.6,N
1503709075.4,286047000.9,N
1503709095.2,286047002.3,N
1503709115.1,286047000.2,N
1503709116.0,286047000.2,N
1503709135.8,286047003.0,N
1503709155.6,286047002.8,N
1503709175.4,286047000.4,N
1503709195.3,286046999.0,N
